Location: Unspecified
(0.0000°N, 0.0000°E)
Time: 23:50:41
(UTC+00:00)

Hubble Space Telescope - Pass Details

Date: 19 January 2022
Orbit: 534 x 538 km, 28.5° (Epoch: 27 January)

Event Time Altitude Azimuth Distance (km) Brightness Sun altitude
Rises 18:46:56 0° 206° (SSW) 2,670 5.1 -8.5°
Reaches altitude 10° 18:51:02 10° 167° (SSE) 1,780 3.5 -9.4°
Maximum altitude 18:51:58 11° 153° (SSE) 1,739 3.3 -9.6°
Drops below altitude 10° 18:52:54 10° 140° (SE) 1,779 3.2 -9.9°
Enters shadow 18:55:07 - 115° (ESE) 2,152 3.4 -10.4°
